{"data":{"norad_id":65588,"intl_designator":"2025-205A","name":"NUSANTARA LIMA (NUSANT*)","alt_names":[],"object_type":"PAYLOAD","status":"ACTIVE","operator":null,"country":"INDO","launch_date":"2025-09-12","launch_site_code":"AFETR","launch_vehicle":null,"mission":null,"orbit_class":"UNKNOWN","rcs_meters":null,"size_class":null,"mass_kg":null,"dimensions":null,"purposes":[],"wikipedia_slug":null,"has_3d_model":false,"image_url":null,"decayed_at":null,"tle_current":{"epoch":"2026-05-25T00:51:06.241824Z","epoch_age_seconds":69217,"freshness":"FRESH","line1":"1 65588U 25205A   26145.03548891 -.00000360  00000+0  00000+0 0  9990","line2":"2 65588   0.0466 113.9751 0000320 341.6695 272.6213  1.00272421  2482","mean_motion":1.00272421,"eccentricity":3.2e-5,"inclination_deg":0.0466,"raan_deg":113.9751,"arg_perigee_deg":341.6695,"mean_anomaly_deg":272.6213,"bstar":0,"rev_number":248,"period_min":1436.0877952673,"perigee_km":35785.067402528,"apogee_km":35787.765933963,"semimajor_km":42164.553668246,"source":"CELESTRAK","updated_at":"2026-05-25T13:38:05.524462Z"}}}